CQ0XBF-11 Weather Reports


Display with metric or nautical units.
time (UTC)temp
F
wind
direction
speed
MPH
gust
MPH
rain 1hr
in
rain 24hr
in
rain mn
in
humidity
%
barometer
mb
20200406023920 55 184 3.0 5.0 0.00 0.00 0.00 100 1014.0
20200406023718 54 201 2.0 5.0 0.00 0.00 0.00 100 1014.1
20200406023517 55 195 3.0 5.0 0.00 0.00 0.00 100 1014.1
20200406023316 55 177 3.0 5.0 0.00 0.00 0.00 100 1014.0
20200406023114 55 201 3.0 5.0 0.00 0.00 0.00 100 1014.1
20200406022912 55 178 3.0 5.0 0.00 0.00 0.00 100 1014.1
20200406022710 55 187 2.0 5.0 0.00 0.00 0.00 100 1014.0
20200406022509 55 185 3.0 5.0 0.00 0.00 0.00 100 1014.0
20200406022307 55 208 3.0 6.0 0.00 0.00 0.00 100 1014.0
20200406022106 55 203 2.0 6.0 0.00 0.00 0.00 100 1013.9
20200406021904 55 188 3.0 6.0 0.00 0.00 0.00 100 1013.9
20200406021702 55 215 3.0 6.0 0.00 0.00 0.00 100 1014.0
20200406021501 55 199 3.0 6.0 0.00 0.00 0.00 100 1014.0
20200406021259 55 196 5.0 6.0 0.00 0.00 0.00 100 1013.9
20200406021058 55 192 2.0 6.0 0.00 0.00 0.00 100 1013.9
20200406020856 55 189 4.0 7.0 0.00 0.00 0.00 100 1014.0
20200406020655 55 203 2.0 7.0 0.00 0.00 0.00 100 1014.0
20200406020453 55 184 4.0 6.0 0.00 0.00 0.00 100 1013.9
20200406020252 55 212 4.0 6.0 0.00 0.00 0.00 100 1013.9
20200406020050 55 195 3.0 6.0 0.00 0.00 0.00 100 1013.9
20200406015849 55 187 3.0 5.0 0.00 0.00 0.00 100 1013.9
20200406015647 55 196 3.0 5.0 0.00 0.00 0.00 100 1013.8
20200406015446 55 185 3.0 6.0 0.00 0.00 0.00 100 1013.8
20200406015244 55 182 4.0 6.0 0.00 0.00 0.00 100 1013.9
20200406015042 54 168 3.0 6.0 0.00 0.00 0.00 100 1013.8
20200406014840 55 219 4.0 6.0 0.00 0.00 0.00 100 1013.8
20200406014639 55 209 3.0 6.0 0.00 0.00 0.00 100 1013.8
20200406014236 54 192 5.0 6.0 0.00 0.00 0.00 100 1013.8
20200406014034 55 210 4.0 6.0 0.00 0.00 0.00 100 1013.8
20200406013833 54 208 2.0 6.0 0.00 0.00 0.00 100 1013.8
20200406013631 54 208 5.0 6.0 0.00 0.00 0.00 100 1013.8
20200406013430 54 196 3.0 5.0 0.00 0.00 0.00 100 1013.8
20200406013027 55 182 3.0 5.0 0.00 0.00 0.00 100 1013.8
20200406012825 55 167 4.0 5.0 0.00 0.00 0.00 100 1013.7
20200406012625 54 185 3.0 5.0 0.00 0.00 0.00 100 1013.7
20200406012422 54 177 2.0 4.0 0.00 0.00 0.00 100 1013.7
20200406012221 55 191 3.0 4.0 0.00 0.00 0.00 100 1013.8
20200406012019 54 189 2.0 4.0 0.00 0.00 0.00 100 1013.7
20200406011819 55 188 2.0 5.0 0.00 0.00 0.00 100 1013.7
20200406011616 54 182 2.0 5.0 0.00 0.00 0.00 100 1013.7
20200406011414 55 144 1.0 5.0 0.00 0.00 0.00 100 1013.6
20200406011213 55 188 2.0 5.0 0.00 0.00 0.00 100 1013.7
20200406011011 55 167 3.0 5.0 0.00 0.00 0.00 100 1013.6
20200406010809 55 123 2.0 6.0 0.00 0.00 0.00 100 1013.6
20200406010608 55 172 2.0 6.0 0.00 0.00 0.00 100 1013.6
20200406010406 54 185 2.0 3.0 0.00 0.00 0.00 100 1013.7
20200406010205 55 180 3.0 3.0 0.00 0.00 0.00 100 1013.7
20200406010003 55 175 3.0 3.0 0.00 0.00 0.00 100 1013.7
20200406005802 55 164 3.0 3.0 0.00 0.00 0.00 100 1013.6
20200406005600 55 194 3.0 3.0 0.00 0.00 0.00 100 1013.7
20200406005359 55 180 2.0 3.0 0.00 0.00 0.00 100 1013.6
20200406005157 55 181 2.0 3.0 0.00 0.00 0.00 100 1013.6
20200406004956 55 185 2.0 4.0 0.00 0.00 0.00 100 1013.6
20200406004754 55 177 2.0 4.0 0.00 0.00 0.00 100 1013.6
20200406004556 55 170 2.0 4.0 0.00 0.00 0.00 100 1013.6
20200406004351 55 180 2.0 4.0 0.00 0.00 0.00 100 1013.7
20200406004149 55 177 3.0 4.0 0.00 0.00 0.00 100 1013.7
20200406003947 55 185 2.0 5.0 0.00 0.00 0.00 100 1013.6
20200406003746 55 163 1.0 5.0 0.00 0.00 0.00 100 1013.7
20200406003545 55 189 3.0 5.0 0.00 0.00 0.00 100 1013.7
20200406003343 55 191 3.0 5.0 0.00 0.00 0.00 100 1013.7
20200406003142 55 209 3.0 5.0 0.00 0.00 0.00 100 1013.7
20200406002940 55 206 3.0 5.0 0.00 0.00 0.00 100 1013.7
20200406002738 55 199 0.0 5.0 0.00 0.00 0.00 100 1013.7
20200406002537 55 180 3.0 5.0 0.00 0.00 0.00 100 1013.7
20200406002335 55 208 3.0 5.0 0.00 0.00 0.00 100 1013.8
20200406002134 55 185 2.0 5.0 0.00 0.00 0.00 100 1013.7
20200406001932 55 195 2.0 6.0 0.00 0.00 0.00 100 1013.7
20200406001731 55 189 4.0 6.0 0.00 0.00 0.00 100 1013.7
20200406001529 55 206 4.0 6.0 0.00 0.00 0.00 100 1013.7
20200406001328 55 212 3.0 5.0 0.00 0.00 0.00 100 1013.7
20200406001126 56 181 3.0 5.0 0.00 0.00 0.00 100 1013.6
20200406000924 55 191 4.0 5.0 0.00 0.00 0.00 100 1013.7
20200406000723 56 230 3.0 5.0 0.00 0.00 0.00 100 1013.7
20200406000522 55 227 2.0 5.0 0.00 0.00 0.00 100 1013.7
20200406000324 56 227 2.0 5.0 0.00 0.00 0.00 100 1013.7
20200406000118 56 248 1.0 5.0 0.00 0.00 0.00 100 1013.7
20200405235917 56 223 2.0 5.0 0.00 0.00 0.33 100 1013.7
20200405235715 56 248 3.0 5.0 0.00 0.00 0.33 100 1013.7
20200405235513 56 217 3.0 5.0 0.00 0.00 0.33 100 1013.6
20200405235312 56 237 3.0 6.0 0.00 0.00 0.33 100 1013.7
20200405235110 56 220 3.0 6.0 0.00 0.00 0.33 100 1013.7
20200405234909 56 225 2.0 6.0 0.00 0.00 0.33 100 1013.6
20200405234707 56 213 4.0 6.0 0.00 0.00 0.33 100 1013.6
20200405234536 56 215 3.0 6.0 0.00 0.00 0.33 100 1013.7
20200405234304 56 205 2.0 6.0 0.00 0.00 0.33 100 1013.6
20200405234102 56 225 2.0 6.0 0.00 0.00 0.33 100 1013.5
20200405233901 56 226 3.0 6.0 0.00 0.00 0.33 100 1013.5
20200405233700 56 223 3.0 6.0 0.00 0.00 0.33 100 1013.5
20200405233458 56 208 3.0 5.0 0.00 0.00 0.33 100 1013.5
20200405233256 56 203 1.0 5.0 0.00 0.00 0.33 100 1013.5
20200405233055 56 215 4.0 5.0 0.00 0.00 0.33 100 1013.5
20200405232902 56 237 2.0 5.0 0.00 0.00 0.33 100 1013.5
20200405232652 56 196 3.0 5.0 0.00 0.00 0.33 100 1013.5
20200405232450 57 230 4.0 5.0 0.00 0.00 0.33 100 1013.5
20200405232248 56 219 3.0 5.0 0.00 0.00 0.33 100 1013.5
20200405232047 56 216 2.0 5.0 0.00 0.00 0.33 100 1013.5
20200405231845 56 203 2.0 5.0 0.00 0.00 0.33 100 1013.5
20200405231644 56 227 2.0 5.0 0.00 0.00 0.33 100 1013.4
20200405231442 56 213 2.0 5.0 0.00 0.00 0.33 100 1013.5
20200405231241 56 220 2.0 5.0 0.00 0.00 0.33 100 1013.4
20200405231039 56 216 3.0 5.0 0.00 0.00 0.33 100 1013.4
20200405230838 56 206 3.0 5.0 0.00 0.00 0.33 100 1013.4
20200405230636 56 212 3.0 5.0 0.00 0.00 0.33 100 1013.3
20200405230434 56 191 1.0 5.0 0.00 0.00 0.33 100 1013.3
20200405230233 56 178 4.0 5.0 0.00 0.00 0.33 100 1013.3
20200405230031 56 181 2.0 5.0 0.00 0.00 0.33 100 1013.4
20200405225829 56 192 2.0 6.0 0.00 0.00 0.33 100 1013.3
20200405225628 56 194 3.0 6.0 0.00 0.00 0.33 100 1013.3
20200405225426 56 222 3.0 5.0 0.00 0.00 0.33 100 1013.3
20200405225225 57 203 5.0 5.0 0.00 0.00 0.33 100 1013.3
20200405225023 57 233 1.0 5.0 0.00 0.00 0.33 100 1013.4
20200405224822 56 230 3.0 4.0 0.00 0.00 0.33 100 1013.4
20200405224620 56 229 3.0 4.0 0.00 0.00 0.33 100 1013.4
20200405224419 57 236 3.0 7.0 0.00 0.00 0.33 100 1013.4
20200405224217 57 222 3.0 7.0 0.00 0.00 0.33 100 1013.4
20200405224016 57 237 2.0 7.0 0.00 0.00 0.33 100 1013.4
20200405223814 57 215 3.0 6.0 0.00 0.00 0.33 100 1013.4
20200405223613 57 180 2.0 6.0 0.00 0.00 0.33 99 1013.4
20200405223411 57 295 2.0 7.0 0.00 0.00 0.33 99 1013.4
20200405223209 57 217 4.0 7.0 0.00 0.00 0.33 99 1013.3
20200405223013 57 303 3.0 7.0 0.00 0.00 0.33 99 1013.3
20200405222806 57 206 5.0 8.0 0.00 0.00 0.33 99 1013.4
20200405222604 57 212 1.0 8.0 0.00 0.00 0.33 99 1013.3
20200405222403 57 219 4.0 6.0 0.00 0.00 0.33 99 1013.3
20200405222201 57 226 2.0 6.0 0.00 0.00 0.33 99 1013.3
20200405222000 57 199 1.0 6.0 0.00 0.00 0.33 99 1013.3
20200405221758 57 254 2.0 8.0 0.00 0.00 0.33 99 1013.3
20200405063543 56 118 12.0 15.0 0.00 0.00 0.09 99 1008.5
20200405063341 56 181 1.0 11.0 0.00 0.00 0.08 99 1008.5
20200405063140 56 133 3.0 11.0 0.00 0.00 0.08 99 1008.6
20200405062938 56 137 3.0 17.0 0.00 0.00 0.08 99 1008.6
20200405062737 56 170 3.0 17.0 0.00 0.00 0.08 99 1008.6
20200405062535 56 199 1.0 17.0 0.00 0.00 0.08 99 1008.5
20200405062334 56 229 2.0 14.0 0.00 0.00 0.08 99 1008.5
20200405062132 56 153 3.0 14.0 0.00 0.00 0.08 99 1008.5
20200405061931 56 187 4.0 16.0 0.00 0.00 0.08 99 1008.4
20200405061729 56 153 4.0 16.0 0.00 0.00 0.08 99 1008.3
20200405061528 56 132 6.0 16.0 0.00 0.00 0.07 99 1008.3
20200405061326 56 158 10.0 17.0 0.00 0.00 0.07 99 1008.2
20200405061125 56 167 6.0 17.0 0.00 0.00 0.07 99 1008.0
20200405060923 56 140 9.0 18.0 0.00 0.00 0.07 99 1007.9
20200405060721 56 61 7.0 18.0 0.00 0.00 0.07 99 1007.9
20200405060520 56 165 5.0 18.0 0.00 0.00 0.07 99 1007.8
20200405060319 56 175 7.0 20.0 0.00 0.00 0.07 99 1007.8
20200405060116 56 109 11.0 20.0 0.00 0.00 0.07 99 1007.8
20200405055942 56 123 16.0 22.0 0.00 0.00 0.07 99 1007.8
20200405055830 56 140 5.0 22.0 0.00 0.00 0.07 99 1007.8
20200405055512 56 175 7.0 22.0 0.00 0.00 0.07 99 1007.7
20200405055310 56 227 5.0 21.0 0.00 0.00 0.07 99 1007.6
20200405055109 56 120 7.0 21.0 0.00 0.00 0.07 99 1007.6
20200405054907 56 142 9.0 16.0 0.00 0.00 0.07 99 1007.6
20200405054706 56 133 9.0 16.0 0.00 0.00 0.07 99 1007.7
20200405054504 56 149 2.0 16.0 0.00 0.00 0.07 99 1007.8
20200405054302 56 160 6.0 19.0 0.00 0.00 0.07 99 1007.8
20200405054101 56 135 6.0 19.0 0.00 0.00 0.07 99 1007.8
20200405053900 56 132 7.0 15.0 0.00 0.00 0.06 99 1007.8
20200405053658 56 143 2.0 15.0 0.00 0.00 0.06 99 1007.8
20200405053456 56 151 8.0 15.0 0.00 0.00 0.06 98 1007.8
20200405053255 56 189 9.0 15.0 0.00 0.00 0.05 98 1007.8
20200405053053 56 165 6.0 15.0 0.00 0.00 0.05 98 1007.8
20200405052852 56 142 3.0 17.0 0.00 0.00 0.05 98 1007.8
20200405052650 56 165 5.0 17.0 0.00 0.00 0.05 98 1007.7
20200405052448 57 160 7.0 16.0 0.00 0.00 0.05 98 1007.8
20200405052247 57 160 11.0 16.0 0.00 0.00 0.04 98 1007.8
20200405052045 56 188 3.0 16.0 0.00 0.00 0.03 98 1007.8
20200405051844 56 170 5.0 16.0 0.00 0.00 0.02 98 1007.8
20200405051642 56 150 5.0 16.0 0.00 0.00 0.02 98 1007.7
20200405051441 57 146 8.0 17.0 0.00 0.00 0.02 98 1007.7
20200405051239 57 139 4.0 17.0 0.00 0.00 0.02 98 1007.7
20200405051037 57 156 8.0 17.0 0.00 0.00 0.02 98 1007.7
20200405050836 57 146 13.0 15.0 0.00 0.00 0.01 97 1007.7
20200405050634 56 184 6.0 15.0 0.00 0.00 0.01 97 1007.6
20200405050433 57 127 7.0 17.0 0.00 0.00 0.01 97 1007.6
20200405050231 57 161 5.0 17.0 0.00 0.00 0.01 97 1007.6
20200405050029 57 142 5.0 17.0 0.00 0.00 0.01 97 1007.5
20200405045828 57 136 7.0 20.0 0.00 0.00 0.01 97 1007.5
20200405045626 57 144 7.0 20.0 0.00 0.00 0.01 97 1007.5
20200405045425 57 116 11.0 15.0 0.00 0.00 0.01 97 1007.6
20200405045223 57 119 6.0 15.0 0.00 0.00 0.01 96 1007.6
20200405045022 57 165 3.0 15.0 0.00 0.00 0.01 96 1007.7
20200405044820 57 125 7.0 14.0 0.00 0.00 0.01 96 1007.7
20200405044619 57 174 5.0 14.0 0.00 0.00 0.01 96 1007.7
20200405044417 58 177 5.0 16.0 0.00 0.00 0.01 95 1007.7
20200405044014 58 154 3.0 16.0 0.00 0.00 0.01 94 1007.7
20200405043813 58 160 8.0 17.0 0.00 0.00 0.00 93 1007.7
20200405043611 58 91 10.0 17.0 0.00 0.00 0.00 92 1007.7
20200405043410 58 143 6.0 16.0 0.00 0.00 0.00 90 1007.7
20200405043208 58 177 6.0 16.0 0.00 0.00 0.00 89 1007.5
20200405043007 58 180 8.0 16.0 0.00 0.00 0.00 89 1007.5
20200405042804 58 127 7.0 17.0 0.00 0.00 0.00 89 1007.5
20200405042603 58 97 8.0 17.0 0.00 0.00 0.00 89 1007.5
20200405042401 58 161 7.0 18.0 0.00 0.00 0.00 89 1007.6
20200405042205 58 161 6.0 18.0 0.00 0.00 0.00 89 1007.5
20200405041958 58 140 14.0 20.0 0.00 0.00 0.00 89 1007.5
20200405041757 58 170 10.0 20.0 0.00 0.00 0.00 89 1007.5
20200405041555 58 133 11.0 20.0 0.00 0.00 0.00 89 1007.5
20200405041354 58 140 13.0 17.0 0.00 0.00 0.00 89 1007.5
20200405040950 58 163 8.0 18.0 0.00 0.00 0.00 89 1007.5
20200405040748 58 137 7.0 18.0 0.00 0.00 0.00 89 1007.5
20200405040345 58 140 11.0 15.0 0.00 0.00 0.00 89 1007.6
20200405040143 58 206 7.0 15.0 0.00 0.00 0.00 89 1007.5
20200405035942 58 187 3.0 18.0 0.00 0.00 0.00 89 1007.6
20200405035740 58 167 6.0 18.0 0.00 0.00 0.00 89 1007.7
20200405035539 58 136 10.0 18.0 0.00 0.00 0.00 89 1007.7
20200405035337 58 154 10.0 17.0 0.00 0.00 0.00 89 1007.6
20200405035135 58 180 8.0 17.0 0.00 0.00 0.00 89 1007.6
20200405034934 58 185 7.0 15.0 0.00 0.00 0.00 89 1007.7
20200405034732 58 180 6.0 15.0 0.00 0.00 0.00 89 1007.6
20200405034531 58 142 13.0 15.0 0.00 0.00 0.00 89 1007.6
20200405034329 58 150 7.0 22.0 0.00 0.00 0.00 89 1007.6
20200405034128 58 167 10.0 22.0 0.00 0.00 0.00 89 1007.6
20200405033926 58 168 5.0 15.0 0.00 0.00 0.00 89 1007.5
20200405033725 58 163 6.0 15.0 0.00 0.00 0.00 89 1007.6
20200405033523 58 144 5.0 15.0 0.00 0.00 0.00 89 1007.6
20200405033322 58 167 14.0 16.0 0.00 0.00 0.00 89 1007.6
20200405033120 58 163 4.0 16.0 0.00 0.00 0.00 89 1007.7
20200405032918 58 161 5.0 17.0 0.00 0.00 0.00 88 1007.6
20200405032717 58 164 5.0 17.0 0.00 0.00 0.00 89 1007.6
20200405032515 58 167 5.0 17.0 0.00 0.00 0.00 89 1007.7
20200405032314 58 149 7.0 15.0 0.00 0.00 0.00 89 1007.7
20200405032112 58 153 6.0 15.0 0.00 0.00 0.00 89 1007.7
20200405031911 58 151 7.0 18.0 0.00 0.00 0.00 89 1007.6
20200405031709 58 129 4.0 18.0 0.00 0.00 0.00 89 1007.7
20200405031507 58 147 10.0 18.0 0.00 0.00 0.00 89 1007.6
20200405031306 58 154 10.0 19.0 0.00 0.00 0.00 89 1007.5
20200405031104 58 143 14.0 19.0 0.00 0.00 0.00 89 1007.5
20200405030903 58 154 9.0 19.0 0.00 0.00 0.00 89 1007.6
20200405030701 58 165 6.0 19.0 0.00 0.00 0.00 89 1007.6
20200405030500 58 143 10.0 19.0 0.00 0.00 0.00 89 1007.5
20200405030258 58 196 9.0 17.0 0.00 0.00 0.00 90 1007.5
20200405030058 58 130 7.0 17.0 0.00 0.00 0.00 90 1007.6
20200405025653 58 157 7.0 17.0 0.00 0.00 0.00 90 1007.5
20200405025249 58 158 11.0 17.0 0.00 0.00 0.00 90 1007.6
20200405025048 58 156 7.0 17.0 0.00 0.00 0.00 90 1007.6
20200405024846 58 140 5.0 17.0 0.00 0.00 0.00 90 1007.6
20200405024644 58 153 9.0 17.0 0.00 0.00 0.00 90 1007.7
20200405024443 58 168 5.0 20.0 0.00 0.00 0.00 90 1007.7
20200405024241 58 167 4.0 20.0 0.00 0.00 0.00 89 1007.7
20200405024040 58 136 7.0 20.0 0.00 0.00 0.00 89 1007.7